Regional Weather Roundup
Issued by NWS Glasgow, MT

Home | Current Version | Previous Version | Text Only | Print | Product List | Glossary On
Versions: 1 2 3 4 5 6 7 8 9 10 11 12 13 14 15 16 17 18 19 20 21 22 23 24 25 26 27 28 29 30 31 32 33 34 35 36 37 38 39 40 41 42 43 44 45 46 47 48 49 50
000
ASUS45 KGGW 060315
RWRGGW
HOURLY REGIONAL WEATHER ROUNDUP FOR NORTHEAST MONTANA
NATIONAL WEATHER SERVICE GLASGOW MONTANA
800 PM MST MON DEC 05 2016

NOTE: "FAIR" INDICATES FEW OR NO CLOUDS BELOW 12,000 FEET WITH NO
SIGNIFICANT WEATHER AND/OR OBSTRUCTIONS TO VISISBILITY.

NORTHEAST MONTANA


CITY           SKY/WX    TMP DP  RH WIND       PRES   REMARKS
GLASGOW        CLOUDY     7  -1  70 NW30G37   30.04S WCI -16
PLENTYWOOD       N/A     10   8  92 NW24G32     N/A  WCI -10
WOLF POINT     CLOUDY    10   0  63 NW22G30   30.04R WCI -10
JORDAN           N/A      6  -1  73 NW20      30.06R WCI -14
SIDNEY         LGT SNOW   8   4  83 NW33G41   29.92R VSB 1   WCI -16
GLENDIVE       CLOUDY     7  -1  70 NW28G41   29.98R WCI -16
SCOBEY           N/A      6  -7  54 W23G31    29.93S WCI -15

FORT PECK REPORTS


CITY           SKY/WX    TMP DP  RH WIND       PRES   REMARKS
FORT PECK        N/A      8   3  80 W22         N/A  WCI -12
THE PINES        N/A      7  -1  70 W3G13       N/A

SOUTHEAST MONTANA


CITY           SKY/WX    TMP DP  RH WIND       PRES   REMARKS
BILLINGS       CLOUDY    16   4  59 N5        30.00S
MILES CITY     CLOUDY    10   0  63 NW21      30.04R WCI  -9
BAKER          LGT SNOW   7   1  76 NW25G36   29.92R WCI -15
LIVINGSTON     LGT SNOW  16  10  77 NW6       29.93R

CENTRAL MONTANA


CITY           SKY/WX    TMP DP  RH WIND       PRES   REMARKS
HAVRE          PTCLDY     6  -1  73 NW8       30.15R
LEWISTOWN      FLURRIES   7   3  84 NW8       30.01R
GREAT FALLS    CLOUDY     7   1  76 NW7       30.09R
CUT BANK       LGT SNOW   6   1  80 NW15      30.07R WCI -12
HELENA         CLOUDY    12   4  70 NW12      30.03R WCI  -2
BUTTE          CLOUDY    15   4  61 W3        29.91R
BOZEMAN        FLURRIES  18  15  88 NE5       29.96R

WESTERN MONTANA


CITY           SKY/WX    TMP DP  RH WIND       PRES   REMARKS
MISSOULA       CLOUDY    22  17  81 CALM      30.02S
KALISPELL      NOT AVBL

NORTH DAKOTA


CITY           SKY/WX    TMP DP  RH WIND       PRES   REMARKS
WILLISTON      LGT SNOW  11   6  81 NW28G40   29.88R VSB 3/4 WCI -10
DICKINSON      MIX PCPN   6   2  83 W31G41    29.78F VSB 3/4 WCI -18
MINOT          LGT SNOW  23  20  88 NW24      29.63S FOG
BISMARCK       LGT SNOW  14  11  87 W26G38    29.70S FOG     WCI  -6

SOUTHERN SASKATCHEWAN


CITY           SKY/WX    TMP DP  RH WIND       PRES   REMARKS
REGINA         FLURRIES  10   5  79 NW23G29   29.95R WCI -10
ESTEVAN        SNOW      12  10  92 NW35G43   29.80R VSB 1/4 WCI -10
SWIFT CURRENT  LGT SNOW   0  -2  92 NW17G23   30.01R WCI -21




USA.gov is the U.S. government's official web portal to all federal, state and local government web resources and services.